Location: Podia
(1.5569°N, 32.3469°E)
Time: 13:14:35
(UTC+00:00)

deb Explorer IX - All Passes

Search period start: 26 September 2020 00:00
Search period end: 06 October 2020 00:00
Orbit: 539 x 1104 km, 38.8° (Epoch: 25 September)

Date Brightness Start Highest point End Pass type
(mag) Time Alt. Az. Time Alt. Az. Time Alt. Az.
26 Sep - 01:19:30 10° WNW 01:24:27 37° SW 01:30:12 10° SSE visible
26 Sep - 10:32:05 10° S 10:34:57 13° SE 10:37:41 10° ESE daylight
26 Sep - 12:16:19 10° SW 12:22:36 72° SE 12:27:53 10° NE daylight
26 Sep - 14:06:04 10° W 14:09:21 16° NW 14:12:23 10° N daylight
26 Sep - 23:10:14 10° NNW 23:14:25 31° NE 23:19:14 10° ESE night (unlit)
27 Sep - 00:56:32 10° WNW 01:01:18 35° SW 01:06:49 10° SSE visible
27 Sep - 10:08:32 10° S 10:11:46 14° SE 10:14:49 10° ESE daylight
27 Sep - 11:52:58 10° SW 11:59:26 73° SE 12:04:54 10° NE daylight
27 Sep - 13:42:43 10° W 13:46:13 16° NW 13:49:27 10° N daylight
27 Sep - 22:47:16 10° NNW 22:51:19 30° NE 22:55:57 10° ESE night (unlit)
28 Sep - 00:33:35 10° WNW 00:38:10 34° SW 00:43:28 10° SSE visible
28 Sep - 09:45:01 10° S 09:48:33 14° SE 09:51:55 10° ESE daylight
28 Sep - 11:29:36 10° SW 11:36:15 75° SE 11:41:53 10° NE daylight
28 Sep - 13:19:22 10° W 13:23:05 17° NW 13:26:30 10° N daylight
28 Sep - 22:24:17 10° NNW 22:28:14 30° NE 22:32:41 10° ESE night (unlit)
29 Sep - 00:10:39 10° WNW 00:15:02 32° SW 00:20:07 10° SSE night (unlit)
29 Sep - 09:21:32 10° S 09:25:20 15° SE 09:28:57 10° ESE daylight
29 Sep - 11:06:14 10° SW 11:13:02 76° SE 11:18:51 10° NE daylight
29 Sep - 12:56:00 10° W 12:59:56 18° NW 13:03:32 10° N daylight
29 Sep - 22:01:20 10° NNW 22:05:09 29° NE 22:09:27 10° ESE night (unlit)
29 Sep - 23:47:43 10° W 23:51:56 31° SW 23:56:46 10° SSE night (unlit)
30 Sep - 08:58:05 10° S 09:02:07 16° SE 09:05:57 10° ESE daylight
30 Sep - 10:42:52 10° SW 10:49:49 77° SE 10:55:49 10° NE daylight
30 Sep - 12:32:37 10° W 12:36:47 18° NW 12:40:33 10° N daylight
30 Sep - 21:38:21 10° NNW 21:42:05 29° NE 21:46:13 10° ESE night (unlit)
30 Sep - 23:24:48 10° W 23:28:50 29° SW 23:33:26 10° SSE night (unlit)
01 Oct - 08:34:39 10° S 08:38:52 16° SE 08:42:55 10° ESE daylight
01 Oct - 10:19:29 10° SW 10:26:34 78° SE 10:32:45 10° NE daylight
01 Oct - 12:09:15 10° W 12:13:35 19° NW 12:17:34 10° N daylight
01 Oct - 21:15:23 10° NNW 21:19:01 29° NE 21:23:01 10° ESE night (unlit)
01 Oct - 23:01:53 10° W 23:05:45 28° SW 23:10:07 10° SSE night (unlit)
02 Oct - 08:11:14 10° S 08:15:37 17° SE 08:19:51 10° ESE daylight
02 Oct - 09:56:08 10° SW 10:03:19 79° SE 10:09:40 10° NE daylight
02 Oct - 11:45:52 10° W 11:50:24 19° NW 11:54:32 10° N daylight
02 Oct - 20:52:23 10° NNW 20:55:58 28° NE 20:59:51 10° ESE night (unlit)
02 Oct - 22:38:58 10° W 22:42:40 26° SW 22:46:49 10° SSE night (unlit)
03 Oct - 07:47:51 10° S 07:52:22 17° SE 07:56:44 10° ESE daylight
03 Oct - 09:32:46 10° SW 09:40:02 80° SE 09:46:33 10° NE daylight
03 Oct - 11:22:30 10° W 11:27:11 20° NW 11:31:31 10° N daylight
03 Oct - 20:29:22 10° NNW 20:32:55 28° NE 20:36:42 10° ESE night (unlit)
03 Oct - 22:16:02 10° W 22:19:36 25° SW 22:23:33 10° SSE night (unlit)
04 Oct - 07:24:29 10° S 07:29:06 18° SE 07:33:35 10° ESE daylight
04 Oct - 09:09:25 10° SW 09:16:45 81° SE 09:23:26 10° NE daylight
04 Oct - 10:59:07 10° W 11:03:58 20° NW 11:08:27 10° N daylight
04 Oct - 20:06:22 10° NNW 20:09:53 28° NE 20:13:35 10° ESE night (unlit)
04 Oct - 21:53:07 10° W 21:56:32 24° SW 22:00:17 10° SSE night (unlit)
05 Oct - 07:01:09 10° S 07:05:49 18° SE 07:10:25 10° ESE daylight
05 Oct - 08:46:05 10° SW 08:53:28 82° SE 09:00:16 10° NE daylight
05 Oct - 10:35:45 10° W 10:40:43 20° NW 10:45:21 10° N daylight
05 Oct - 19:43:19 10° NNW 19:46:50 29° NE 19:50:29 10° ESE night (unlit)
05 Oct - 21:30:10 10° W 21:33:29 23° SW 21:37:03 10° SSE night (unlit)
